This demonstration page uses our WeatherBlox Daily Observations layout. Learn more.

Left ArrowRight Arrow

38.20091, -84.87328

Hourly Observations for February 26, 2020

Temp ( °F °C ) Dew Point ( °F °C ) Humidity (%) Winds ( mph kmh ) Pressure ( in mb ) Visibility ( mi km ) Precip ( " mm )
12:22 am 00:22 Cloudy 47 8.3 43 6.1 86 86 WSW 6 9 29.89 1012 9 14 0.00 0.00
12:53 am 00:53 Cloudy 47 8.3 43 6.1 86 86 VRB 5 7 29.86 1011 10 16 0.00 0.00
1:12 am 01:12 Cloudy 47 8.3 43 6.1 86 86 WSW 7 11 29.89 1012 8 13 0.00 0.00
1:17 am 01:17 Cloudy 47 8.3 43 6.1 86 86 SW 7 11 29.89 1012 8 13 0.00 0.00
1:53 am 01:53 Cloudy 46 7.8 43 6.1 89 89 SW 5 7 29.86 1011 7 11 0.00 0.00
2:01 am 02:01 Cloudy with Mist and Fog 46 7.8 43 6.1 89 89 SW 6 9 29.88 1012 3 5 0.00 0.00
2:09 am 02:09 Cloudy with Mist and Fog 46 7.8 43 6.1 89 89 WSW 5 7 29.88 1012 3 4 0.00 0.00
2:23 am 02:23 Cloudy with Mist and Fog 46 7.8 44 6.7 93 93 W 6 9 29.88 1012 3 5 0.00 0.00
2:53 am 02:53 Cloudy 46 7.8 43 6.1 89 89 WSW 5 7 29.85 1011 8 13 0.00 0.00
3:02 am 03:02 Cloudy 46 7.8 43 6.1 89 89 W 5 7 29.88 1012 8 13 0.00 0.00
3:13 am 03:13 Cloudy 45 7.2 43 6.1 93 93 WSW 5 7 29.87 1011 9 14 0.00 0.00
3:30 am 03:30 Cloudy 45 7.2 42 5.6 90 90 WSW 5 7 29.88 1012 9 14 0.00 0.00
3:53 am 03:53 Cloudy 45 7.2 42 5.6 90 90 W 6 9 29.86 1011 7 11 0.00 0.00
4:04 am 04:04 Cloudy 45 7.2 42 5.6 90 90 WSW 6 9 29.88 1012 7 11 0.00 0.00
4:38 am 04:38 Cloudy with Mist and Fog 45 7.2 42 5.6 90 90 WSW 6 9 29.88 1012 4 6 0.00 0.00
4:53 am 04:53 Cloudy with Mist and Fog 45 7.2 42 5.6 90 90 W 5 7 29.87 1011 3 5 0.00 0.00
5:12 am 05:12 Cloudy 45 7.2 42 5.6 90 90 Calm 29.87 1011 10 16 0.00 0.00
5:30 am 05:30 Cloudy 44 6.7 41 5 89 89 WSW 5 7 29.87 1012 10 16 0.00 0.00
5:53 am 05:53 Cloudy 44 6.7 42 5.6 93 93 SW 3 6 29.85 1011 10 16 0.00 0.00
6:05 am 06:05 Cloudy 44 6.7 42 5.6 93 93 SW 3 6 29.86 1011 10 16 0.00 0.00
6:53 am 06:53 Cloudy 44 6.7 41 5 89 89 SW 5 7 29.85 1011 10 16 0.00 0.00
7:37 am 07:37 Cloudy 44 6.7 41 5 89 89 WSW 5 7 29.87 1012 9 14 0.00 0.00
7:53 am 07:53 Cloudy with Mist and Fog 44 6.7 41 5 89 89 WSW 3 6 29.85 1011 3 5 0.00 0.00
8:10 am 08:10 Cloudy with Mist and Fog 44 6.7 41 5 89 89 SW 7 11 29.88 1012 4 6 0.00 0.00
8:53 am 08:53 Cloudy with Light Rain 44 6.7 41 5 89 89 SSW 7 11 29.85 1011 5 8 0.03 0.76
9:46 am 09:46 Cloudy with Light Rain 43 6.1 40 4.4 89 89 W 5 7 29.84 1011 7 11 0.02 0.51
9:53 am 09:53 Cloudy with Light Rain 43 6.1 40 4.4 89 89 W 6 9 29.83 1010 7 11 0.02 0.51
10:34 am 10:34 Cloudy with Light Rain 43 6.1 40 4.4 89 89 SW 10 17 29.86 1011 5 8 0.02 0.51
10:53 am 10:53 Cloudy with Light Rain 42 5.6 39 3.9 89 89 WSW 12 19 29.84 1011 5 8 0.04 1.02
10:59 am 10:59 Cloudy with Light Rain 42 5.6 39 3.9 89 89 W 13 20 29.85 1011 5 8 0.01 0.25
11:09 am 11:09 Cloudy with Light Rain 42 5.6 38 3.3 85 85 WSW 15 24 29.85 1011 7 11 0.02 0.51
11:17 am 11:17 Cloudy with Light Rain 42 5.6 38 3.3 85 85 WSW 12 19 29.87 1012 7 11 0.02 0.51
11:31 am 11:31 Cloudy with Light Rain 41 5 37 2.8 86 86 WSW 8 13 29.87 1011 8 13 0.03 0.76
11:53 am 11:53 Cloudy with Light Rain 40 4.4 37 2.8 89 89 WSW 12 19 29.85 1011 9 14 0.04 1.02
12:08 pm 12:08 Cloudy with Light Rain 40 4.4 36 2.2 86 86 WSW 10 17 29.88 1012 6 10 0.01 0.25
12:32 pm 12:32 Cloudy with Light Rain 40 4.4 36 2.2 86 86 W 9 15 29.87 1011 7 11 0.03 0.76
12:53 pm 12:53 Cloudy with Light Rain 40 4.4 37 2.8 89 89 W 10 17 29.84 1011 10 16 0.03 0.76
1:10 pm 13:10 Cloudy 40 4.4 36 2.2 86 86 W 10 17 29.86 1011 10 16 0.00 0.00
1:53 pm 13:53 Cloudy with Light Rain 40 4.4 35 1.7 83 83 W 13 20 29.82 1010 7 11 0.01 0.25
2:06 pm 14:06 Cloudy 40 4.4 35 1.7 83 83 W 9 15 29.85 1011 10 16 0.00 0.00
2:42 pm 14:42 Cloudy with Light Rain 39 3.9 35 1.7 86 86 W 9 15 29.85 1011 8 13 0.00 0.00
2:53 pm 14:53 Cloudy with Light Rain 39 3.9 35 1.7 86 86 W 13 20 29.83 1010 8 13 0.01 0.25
3:24 pm 15:24 Cloudy with Light Rain 38 3.3 35 1.7 89 89 WNW 9 15 29.86 1011 7 11 0.01 0.25
3:53 pm 15:53 Cloudy with Light Rain 37 2.8 34 1.1 89 89 WNW 8 13 29.85 1011 6 10 0.02 0.51
4:03 pm 16:03 Cloudy 37 2.8 33 0.6 86 86 WNW 7 11 29.88 1012 10 16 0.00 0.00
4:53 pm 16:53 Cloudy with Light Snow 35 1.7 31 -0.6 85 85 WNW 8 13 29.89 1012 4 6 0.00 0.00
5:02 pm 17:02 Cloudy 35 1.7 31 -0.6 85 85 W 9 15 29.92 1013 10 16 0.00 0.00
5:20 pm 17:20 Cloudy with Light Snow 35 1.7 31 -0.6 85 85 W 9 15 29.94 1014 7 11 0.00 0.00
5:53 pm 17:53 Cloudy 35 1.7 30 -1.1 82 82 NW 8 13 29.93 1013 10 16 0.00 0.00
6:09 pm 18:09 Cloudy 35 1.7 29 -1.7 78 78 WNW 12 19 29.96 1014 10 16 0.00 0.00
6:17 pm 18:17 Cloudy with Light Snow 35 1.7 29 -1.7 78 78 WNW 10 17 29.97 1015 8 13 0.00 0.00
6:24 pm 18:24 Cloudy with Light Snow 34 1.1 29 -1.7 82 82 WNW 12 19 29.97 1015 3 4 0.00 0.00
6:42 pm 18:42 Cloudy with Light Snow 34 1.1 29 -1.7 82 82 WNW 8 13 29.98 1015 5 8 0.00 0.00
6:53 pm 18:53 Cloudy with Light Snow 33 0.6 28 -2.2 82 82 NW 10 17 29.96 1015 5 8 0.00 0.00
7:01 pm 19:01 Cloudy with Light Snow 33 0.6 28 -2.2 82 82 WNW 10 17 29.99 1016 6 10 0.00 0.00
7:30 pm 19:30 Cloudy with Light Snow 33 0.6 27 -2.8 78 78 WNW 10 17 30.01 1016 5 8 0.00 0.00
7:53 pm 19:53 Cloudy with Light Snow 33 0.6 27 -2.8 78 78 WNW 10 17 29.99 1016 8 13 0.00 0.00
8:21 pm 20:21 Mostly Cloudy 32 0 26 -3.3 79 79 WNW 7 11 30.03 1017 10 16 0.00 0.00
8:53 pm 20:53 Cloudy 32 0 26 -3.3 79 79 WNW 12 19 30.01 1016 10 16 0.00 0.00
9:44 pm 21:44 Cloudy 32 0 23 -5 69 69 NW 9 15 30.07 1018 10 16 0.00 0.00
9:53 pm 21:53 Cloudy 32 0 23 -5 69 69 WNW 13 20 30.04 1017 10 16 0.00 0.00
10:53 pm 22:53 Cloudy 31 -0.6 23 -5 72 72 NW 9 15 30.05 1018 10 16 0.00 0.00
11:19 pm 23:19 Cloudy with Light Snow 31 -0.6 25 -3.9 79 79 WNW 7 11 30.08 1019 4 6 0.00 0.00
11:30 pm 23:30 Cloudy with Light Snow 30 -1.1 26 -3.3 85 85 WNW 7 11 30.08 1019 2 3 0.00 0.00
11:53 pm 23:53 Cloudy with Light Snow 31 -0.6 26 -3.3 82 82 WNW 10 17 30.07 1018 3 4 0.00 0.00
11:57 pm 23:57 Cloudy with Light Snow 30 -1.1 25 -3.9 82 82 NW 17 28 30.10 1019 1 2 0.00 0.00

Powered by AerisWeather